User: anonymous   Login
Location: Hiram
(41.3130°N, 81.1440°W)
Time: 05:29:15
(UTC-05:00)
Language:

Iridium 62 - Orbit

View from above orbital plane
View from above orbital plane
View from above satellite
View from above satellite

Ground track
Ground track

The orbit data is extracted from the following two-line orbital elements,

1 25285U 98021A   17321.56478626 -.00000036  00000-0 -19975-4 0  9996
2 25285  86.3962 159.8405 0001776  85.7745 274.3654 14.34221023 27009
Epoch (UTC): 17 November 2017 13:33:17
Eccentricity: 0.0001776
inclination: 86.3962°
perigee height: 776 km
apogee height: 779 km
right ascension of ascending node: 159.8405°
argument of perigee: 85.7745°
revolutions per day: 14.34221023
mean anomaly at epoch: 274.3654°
orbit number at epoch: 2700

The dashed part of the orbit path shows where the satellite is in the earth's shadow,  

DLR